QPF
0.00 0.00 0.00 0.00 0.00 0.00 0.00 0.00 0.00 0.00 0.00 0.00 0.00 0.00 0.00 0.00 0.00 0.00 0.00 0.00 0.00 0.00 0.00 0.00 0.00 0.00 0.00 0.00 0.00 0.00 0.00 0.00 0.00 0.00 0.00 0.00 0.00 0.00 0.00 0.00 0.00 0.00 0.00 0.00
0.00 0.00 0.00 0.00 0.00 0.00 0.00 0.00 0.00 0.00 0.00 0.00 0.00 0.00 0.00 0.00 0.00 0.00 0.00 0.00 0.00 0.00 0.00 0.00 0.00 0.00 0.00 0.00 0.00 0.00 0.00 0.00 0.00 0.00 0.00 0.00 0.00 0.00 0.00 0.00 0.00 0.00 0.00 0.00
0.00 0.00 0.00 0.00 0.00 0.00 0.00 0.00 0.00 0.00 0.00 0.00 0.00 0.00 0.00 0.00 0.00 0.00 0.00 0.00 0.00 0.00 0.00 0.00 0.00 0.00 0.00 0.00 0.00 0.00 0.00 0.00 0.00 0.00 0.00 0.00 0.00 0.00 0.00 0.00 0.00 0.00 0.00 0.00
0.00 0.00 0.00 0.00 0.00 0.00 0.00 0.00 0.00 0.00 0.00 0.00 0.00 0.00 0.00 0.00 0.00 0.00 0.00 0.00 0.00 0.00 0.00 0.00 0.00 0.00 0.00 0.00 0.00 0.00 0.00 0.00 0.00 0.00 0.00 0.00 0.00 0.00 0.00 0.00 0.00 0.00 0.00 0.00
0.00 0.00 0.00 0.00 0.00 0.00 0.00 0.00 0.00 0.00 0.00 0.00 0.00 0.00 0.00 0.00 0.00 0.00 0.00 0.00 0.00 0.00 0.00 0.00 0.00 0.00 0.00 0.00 0.00 0.00 0.00 0.00 0.00 0.00 0.00 0.00 0.00 0.00 0.00 0.00 0.00 0.00 0.00 0.00
0.00 0.00 0.00 0.00 0.00 0.00 0.00 0.00 0.00 0.00 0.00 0.00 0.00 0.00 0.00 0.00 0.00 0.00 0.00 0.00 0.00 0.00 0.00 0.00 0.00 0.00 0.00 0.00 0.00 0.00 0.00 0.00 0.00 0.00 0.00 0.00 0.00 0.00 0.00 0.00 0.00 0.00 0.00 0.00
0.00 0.00 0.00 0.00 0.00 0.00 0.00 0.00 0.00 0.00 0.00 0.00 0.00 0.00 0.00 0.00 0.00 0.00 0.00 0.00 0.00 0.00 0.00 0.00 0.00 0.00 0.00 0.00 0.00 0.00 0.00 0.00 0.00 0.00 0.00 0.00 0.00 0.00 0.00 0.00 0.00 0.00 0.00 0.00
0.00 0.00 0.00 0.00 0.00 0.00 0.00 0.00 0.00 0.00 0.00 0.00 0.00 0.00 0.00 0.00 0.00 0.00 0.00 0.00 0.00 0.00 0.00 0.00 0.00 0.00 0.00 0.00 0.00 0.00 0.00 0.00 0.00 0.00 0.00 0.00 0.00 0.00 0.00 0.00 0.00 0.00 0.00 0.00
0.00 0.00 0.00 0.00 0.00 0.00 0.00 0.00 0.00 0.00 0.00 0.00 0.00 0.00 0.00 0.00 0.00 0.00 0.00 0.00 0.00 0.00 0.00 0.00 0.00 0.00 0.00 0.00 0.00 0.00 0.00 0.00 0.00 0.00 0.00 0.00 0.00 0.00 0.00 0.00 0.00 0.00 0.00 0.00
0.00 0.00 0.00 0.00 0.00 0.00 0.00 0.00 0.00 0.00 0.00 0.00 0.00 0.00 0.00 0.00 0.00 0.00 0.00 0.00 0.00 0.00 0.00 0.00 0.00 0.00 0.00 0.00 0.00 0.00 0.00 0.00 0.00 0.00 0.00 0.00 0.00 0.00 0.00 0.00 0.00 0.00 0.00 0.00
0.00 0.00 0.00 0.00 0.00 0.00 0.00 0.00 0.00 0.00 0.00 0.00 0.00 0.00 0.00 0.00 0.00 0.00 0.00 0.00 0.00 0.00 0.00 0.00 0.00 0.00 0.00 0.00 0.00 0.00 0.00 0.00 0.00 0.00 0.00 0.00 0.00 0.00 0.00 0.00 0.00 0.00 0.00 0.00
0.00 0.00 0.00 0.00 0.00 0.00 0.00 0.00 0.00 0.00 0.00 0.00 0.00 0.00 0.00 0.00 0.00 0.00 0.00 0.00 0.00 0.00 0.00 0.00 0.00 0.00 0.00 0.00 0.00 0.00 0.00 0.00 0.00 0.00 0.00 0.00 0.00 0.00 0.00 0.00 0.00 0.00 0.00 0.00
0.00 0.00 0.00 0.00 0.00 0.00 0.00 0.00 0.00 0.00 0.00 0.00 0.00 0.00 0.00 0.00 0.00 0.00 0.00 0.00 0.00 0.00 0.00 0.00 0.00 0.00 0.00 0.00 0.00 0.00 0.00 0.00 0.00 0.00 0.00 0.00 0.00 0.00 0.00 0.00 0.00 0.00 0.00 0.00
0.00 0.00 0.00 0.00 0.00 0.00 0.00 0.00 0.00 0.00 0.00 0.00 0.00 0.00 0.00 0.00 0.00 0.00 0.00 0.00 0.00 0.00 0.00 0.00 0.00 0.00 0.00 0.00 0.00 0.00 0.00 0.00 0.00 0.00 0.00 0.00 0.00 0.00 0.00 0.00 0.00 0.00 0.00 0.00
0.00 0.00 0.00 0.00 0.00 0.00 0.00 0.00 0.00 0.00 0.00 0.00 0.00 0.00 0.00 0.00 0.00 0.00 0.00 0.00 0.00 0.00 0.00 0.00 0.00 0.00 0.00 0.00 0.00 0.00 0.00 0.00 0.00 0.00 0.00 0.00 0.00 0.00 0.00 0.00 0.00 0.00 0.00 0.00
0.00 0.00 0.00 0.00 0.00 0.00 0.00 0.00 0.00 0.00 0.00 0.00 0.00 0.00 0.00 0.00 0.00 0.00 0.00 0.00 0.00 0.00 0.00 0.00 0.00 0.00 0.00 0.00 0.00 0.00 0.00 0.00 0.00 0.00 0.00 0.00 0.00 0.00 0.00 0.00 0.00 0.00 0.00 0.00
0.00 0.00 0.00 0.00 0.00 0.00 0.00 0.00 0.00 0.00 0.00 0.00 0.00 0.00 0.00 0.00 0.00 0.00 0.00 0.00 0.00 0.00 0.00 0.00 0.00 0.00 0.00 0.00 0.00 0.00 0.00 0.00 0.00 0.00 0.00 0.00 0.00 0.00 0.00 0.00 0.00 0.00 0.00 0.00
0.00 0.00 0.00 0.00 0.00 0.00 0.00 0.00 0.00 0.00 0.00 0.00 0.00 0.00 0.00 0.00 0.00 0.00 0.00 0.00 0.00 0.00 0.00 0.00 0.00 0.00 0.00 0.00 0.00 0.00 0.00 0.00 0.00 0.00 0.00 0.00 0.00 0.00 0.00 0.00 0.00 0.00 0.00 0.00
0.00 0.00 0.00 0.00 0.00 0.00 0.00 0.00 0.00 0.00 0.00 0.00 0.00 0.00 0.00 0.00 0.00 0.00 0.00 0.00 0.00 0.00 0.00 0.00 0.00 0.00 0.00 0.00 0.00 0.00 0.00 0.00 0.00 0.00 0.00 0.00 0.00 0.00 0.00 0.00 0.00 0.00 0.00 0.00
0.00 0.00 0.00 0.00 0.00 0.00 0.00 0.00 0.00 0.00 0.00 0.00 0.00 0.00 0.00 0.00 0.00 0.00 0.00 0.00 0.00 0.00 0.00 0.00 0.00 0.00 0.00 0.00 0.00 0.00 0.00 0.00 0.00 0.00 0.00 0.00 0.00 0.00 0.00 0.00 0.00 0.00 0.00 0.00
0.00 0.00 0.00 0.00 0.00 0.00 0.00 0.00 0.00 0.00 0.00 0.00 0.00 0.00 0.00 0.00 0.00 0.00 0.00 0.00 0.00 0.00 0.00 0.00 0.00 0.00 0.00 0.00 0.00 0.00 0.00 0.00 0.00 0.00 0.00 0.00 0.00 0.00 0.00 0.00 0.00 0.00 0.00 0.00
0.00 0.00 0.00 0.00 0.00 0.00 0.00 0.00 0.00 0.00 0.00 0.00 0.00 0.00 0.00 0.00 0.00 0.00 0.00 0.00 0.00 0.00 0.00 0.00 0.00 0.00 0.00 0.00 0.00 0.00 0.00 0.00 0.00 0.00 0.00 0.00 0.00 0.00 0.00 0.00 0.00 0.00 0.00 0.00
0.00 0.00 0.00 0.00 0.00 0.00 0.00 0.00 0.00 0.00 0.00 0.00 0.00 0.00 0.00 0.00 0.00 0.00 0.00 0.00 0.00 0.00 0.00 0.00 0.00 0.00 0.00 0.00 0.00 0.00 0.00 0.00 0.00 0.00 0.00 0.00 0.00 0.00 0.00 0.00 0.00 0.00 0.00 0.00
0.00 0.00 0.00 0.00 0.00 0.00 0.00 0.00 0.00 0.00 0.00 0.00 0.00 0.00 0.00 0.00 0.00 0.00 0.00 0.00 0.00 0.00 0.00 0.00 0.00 0.00 0.00 0.00 0.00 0.00 0.00 0.00 0.00 0.00 0.00 0.00 0.00 0.00 0.00 0.00 0.00 0.00 0.00 0.01
0.00 0.00 0.00 0.00 0.00 0.00 0.00 0.00 0.00 0.00 0.00 0.00 0.00 0.00 0.00 0.00 0.00 0.00 0.00 0.00 0.00 0.00 0.00 0.00 0.00 0.00 0.00 0.00 0.00 0.00 0.00 0.00 0.00 0.00 0.00 0.00 0.00 0.00 0.00 0.00 0.00 0.00 0.00 0.01
0.00 0.00 0.00 0.00 0.00 0.00 0.00 0.00 0.00 0.00 0.00 0.00 0.00 0.00 0.00 0.00 0.00 0.00 0.00 0.00 0.00 0.00 0.00 0.00 0.00 0.00 0.00 0.00 0.00 0.00 0.00 0.00 0.00 0.00 0.00 0.00 0.00 0.00 0.00 0.00 0.00 0.00 0.00 0.00
MSLP
1022.27 1022.85 1023.43 1023.97 1024.43 1024.80 1025.07 1025.27 1025.41 1025.53 1025.66 1025.82 1026.02 1026.27 1026.56 1026.89 1027.27 1027.70 1028.18 1028.74 1029.37 1030.10 1030.91 1031.79 1032.70 1033.59 1034.40 1035.07 1035.57 1035.85 1035.90 1035.76 1035.45 1035.05 1034.60 1034.16 1033.77 1033.44 1033.18 1032.96 1032.72 1032.45 1032.09 1031.63
1022.81 1023.29 1023.76 1024.17 1024.50 1024.75 1024.92 1025.04 1025.11 1025.18 1025.26 1025.38 1025.53 1025.72 1025.96 1026.24 1026.58 1026.98 1027.45 1028.02 1028.70 1029.48 1030.36 1031.31 1032.29 1033.25 1034.12 1034.86 1035.41 1035.75 1035.86 1035.78 1035.52 1035.15 1034.72 1034.28 1033.87 1033.51 1033.19 1032.91 1032.63 1032.32 1031.95 1031.50
1023.38 1023.78 1024.15 1024.45 1024.68 1024.83 1024.92 1024.96 1024.97 1024.98 1025.00 1025.04 1025.11 1025.22 1025.38 1025.60 1025.89 1026.26 1026.75 1027.36 1028.09 1028.94 1029.89 1030.91 1031.95 1032.96 1033.88 1034.65 1035.24 1035.63 1035.79 1035.76 1035.57 1035.25 1034.85 1034.42 1033.99 1033.58 1033.21 1032.86 1032.52 1032.16 1031.77 1031.32
1023.97 1024.30 1024.58 1024.80 1024.95 1025.03 1025.06 1025.04 1024.99 1024.93 1024.86 1024.81 1024.77 1024.77 1024.83 1024.97 1025.21 1025.58 1026.09 1026.75 1027.56 1028.50 1029.53 1030.62 1031.70 1032.74 1033.67 1034.45 1035.05 1035.46 1035.67 1035.69 1035.55 1035.28 1034.93 1034.51 1034.07 1033.63 1033.20 1032.79 1032.39 1031.99 1031.57 1031.12
1024.54 1024.81 1025.03 1025.18 1025.28 1025.32 1025.31 1025.25 1025.15 1025.01 1024.85 1024.68 1024.51 1024.38 1024.32 1024.38 1024.57 1024.93 1025.48 1026.22 1027.12 1028.16 1029.28 1030.43 1031.55 1032.59 1033.50 1034.26 1034.85 1035.25 1035.47 1035.53 1035.44 1035.23 1034.92 1034.53 1034.10 1033.65 1033.18 1032.72 1032.26 1031.81 1031.36 1030.89
1025.06 1025.27 1025.44 1025.55 1025.62 1025.64 1025.61 1025.53 1025.38 1025.18 1024.92 1024.63 1024.32 1024.05 1023.87 1023.83 1023.98 1024.35 1024.95 1025.77 1026.77 1027.91 1029.12 1030.33 1031.48 1032.50 1033.38 1034.09 1034.63 1035.00 1035.20 1035.28 1035.22 1035.06 1034.80 1034.46 1034.06 1033.60 1033.12 1032.63 1032.14 1031.65 1031.17 1030.67
1025.48 1025.64 1025.77 1025.86 1025.91 1025.94 1025.91 1025.82 1025.65 1025.39 1025.04 1024.63 1024.19 1023.78 1023.48 1023.35 1023.45 1023.83 1024.48 1025.39 1026.50 1027.75 1029.04 1030.31 1031.47 1032.47 1033.30 1033.94 1034.41 1034.72 1034.89 1034.96 1034.92 1034.80 1034.59 1034.30 1033.94 1033.51 1033.04 1032.53 1032.02 1031.50 1030.98 1030.45
1025.79 1025.90 1025.99 1026.06 1026.12 1026.16 1026.16 1026.08 1025.90 1025.60 1025.18 1024.66 1024.10 1023.57 1023.15 1022.93 1023.00 1023.38 1024.08 1025.06 1026.27 1027.62 1029.00 1030.31 1031.48 1032.46 1033.23 1033.80 1034.18 1034.42 1034.55 1034.60 1034.57 1034.48 1034.32 1034.08 1033.77 1033.38 1032.92 1032.43 1031.90 1031.37 1030.82 1030.25
1025.97 1026.02 1026.08 1026.15 1026.22 1026.29 1026.32 1026.27 1026.09 1025.77 1025.29 1024.70 1024.03 1023.40 1022.88 1022.59 1022.61 1022.99 1023.72 1024.77 1026.06 1027.48 1028.93 1030.28 1031.46 1032.42 1033.14 1033.65 1033.96 1034.14 1034.22 1034.24 1034.21 1034.14 1034.02 1033.83 1033.56 1033.21 1032.79 1032.31 1031.78 1031.23 1030.66 1030.05
1026.02 1026.03 1026.07 1026.13 1026.22 1026.32 1026.39 1026.37 1026.21 1025.87 1025.36 1024.71 1023.97 1023.25 1022.66 1022.31 1022.29 1022.65 1023.40 1024.48 1025.82 1027.30 1028.79 1030.17 1031.36 1032.31 1033.00 1033.46 1033.73 1033.86 1033.90 1033.90 1033.88 1033.82 1033.73 1033.57 1033.35 1033.03 1032.63 1032.17 1031.65 1031.09 1030.49 1029.85
1025.97 1025.96 1025.98 1026.04 1026.15 1026.27 1026.36 1026.37 1026.22 1025.89 1025.36 1024.67 1023.89 1023.11 1022.46 1022.06 1022.00 1022.33 1023.07 1024.16 1025.51 1027.01 1028.52 1029.93 1031.13 1032.08 1032.77 1033.21 1033.46 1033.57 1033.61 1033.60 1033.58 1033.54 1033.46 1033.33 1033.12 1032.83 1032.45 1031.99 1031.47 1030.90 1030.29 1029.64
1025.91 1025.87 1025.88 1025.93 1026.04 1026.17 1026.26 1026.27 1026.12 1025.79 1025.25 1024.55 1023.74 1022.93 1022.24 1021.81 1021.71 1022.01 1022.71 1023.77 1025.11 1026.59 1028.10 1029.51 1030.73 1031.70 1032.40 1032.87 1033.14 1033.27 1033.32 1033.33 1033.32 1033.29 1033.22 1033.10 1032.90 1032.60 1032.22 1031.76 1031.24 1030.66 1030.05 1029.39
1025.87 1025.83 1025.82 1025.85 1025.94 1026.04 1026.10 1026.08 1025.92 1025.56 1025.02 1024.30 1023.49 1022.67 1021.98 1021.52 1021.39 1021.65 1022.31 1023.32 1024.60 1026.05 1027.54 1028.94 1030.17 1031.16 1031.91 1032.43 1032.75 1032.94 1033.03 1033.08 1033.08 1033.06 1032.99 1032.86 1032.65 1032.34 1031.94 1031.47 1030.93 1030.35 1029.74 1029.09
1025.92 1025.87 1025.83 1025.83 1025.86 1025.89 1025.89 1025.81 1025.59 1025.19 1024.62 1023.91 1023.11 1022.31 1021.62 1021.17 1021.03 1021.26 1021.86 1022.82 1024.04 1025.43 1026.87 1028.25 1029.48 1030.51 1031.32 1031.91 1032.31 1032.57 1032.73 1032.81 1032.85 1032.84 1032.76 1032.61 1032.37 1032.03 1031.61 1031.11 1030.56 1029.97 1029.36 1028.74
1026.06 1026.00 1025.93 1025.86 1025.79 1025.72 1025.61 1025.42 1025.11 1024.66 1024.06 1023.35 1022.57 1021.81 1021.17 1020.75 1020.63 1020.84 1021.41 1022.31 1023.46 1024.78 1026.16 1027.51 1028.75 1029.81 1030.67 1031.34 1031.83 1032.17 1032.40 1032.54 1032.60 1032.60 1032.51 1032.33 1032.05 1031.67 1031.21 1030.69 1030.12 1029.53 1028.93 1028.33
1026.27 1026.18 1026.05 1025.89 1025.71 1025.50 1025.24 1024.91 1024.49 1023.96 1023.33 1022.62 1021.89 1021.20 1020.63 1020.28 1020.20 1020.44 1020.99 1021.84 1022.93 1024.19 1025.51 1026.82 1028.05 1029.12 1030.04 1030.77 1031.34 1031.76 1032.06 1032.24 1032.33 1032.32 1032.21 1032.00 1031.68 1031.27 1030.77 1030.22 1029.63 1029.03 1028.44 1027.87
1026.45 1026.33 1026.13 1025.86 1025.54 1025.17 1024.74 1024.25 1023.70 1023.09 1022.42 1021.73 1021.06 1020.47 1020.02 1019.78 1019.79 1020.08 1020.65 1021.49 1022.53 1023.73 1024.99 1026.26 1027.45 1028.54 1029.47 1030.26 1030.89 1031.37 1031.71 1031.93 1032.02 1032.01 1031.87 1031.62 1031.27 1030.82 1030.29 1029.72 1029.12 1028.53 1027.95 1027.39
1026.49 1026.33 1026.05 1025.67 1025.20 1024.66 1024.07 1023.43 1022.75 1022.06 1021.38 1020.73 1020.15 1019.68 1019.38 1019.28 1019.42 1019.80 1020.43 1021.28 1022.30 1023.45 1024.66 1025.87 1027.03 1028.09 1029.03 1029.83 1030.48 1030.99 1031.36 1031.58 1031.68 1031.64 1031.48 1031.20 1030.81 1030.34 1029.80 1029.22 1028.62 1028.03 1027.46 1026.91
1026.27 1026.07 1025.72 1025.23 1024.63 1023.95 1023.21 1022.43 1021.66 1020.92 1020.24 1019.65 1019.19 1018.88 1018.74 1018.82 1019.11 1019.62 1020.33 1021.21 1022.23 1023.35 1024.51 1025.66 1026.77 1027.79 1028.70 1029.49 1030.14 1030.64 1031.00 1031.21 1031.28 1031.22 1031.03 1030.73 1030.32 1029.84 1029.30 1028.73 1028.15 1027.57 1027.01 1026.46
1025.72 1025.47 1025.06 1024.50 1023.80 1023.01 1022.16 1021.30 1020.47 1019.72 1019.07 1018.57 1018.24 1018.09 1018.15 1018.41 1018.87 1019.52 1020.32 1021.25 1022.28 1023.38 1024.49 1025.58 1026.62 1027.59 1028.45 1029.19 1029.81 1030.28 1030.61 1030.80 1030.84 1030.75 1030.53 1030.21 1029.81 1029.33 1028.81 1028.26 1027.71 1027.16 1026.61 1026.07
1024.79 1024.51 1024.07 1023.46 1022.71 1021.87 1020.97 1020.07 1019.23 1018.50 1017.93 1017.53 1017.34 1017.37 1017.61 1018.05 1018.68 1019.45 1020.35 1021.34 1022.38 1023.45 1024.52 1025.54 1026.52 1027.41 1028.20 1028.89 1029.46 1029.89 1030.17 1030.32 1030.33 1030.22 1029.99 1029.67 1029.27 1028.81 1028.33 1027.82 1027.31 1026.80 1026.27 1025.74
1023.53 1023.23 1022.77 1022.15 1021.40 1020.56 1019.67 1018.80 1018.00 1017.34 1016.85 1016.58 1016.54 1016.72 1017.13 1017.73 1018.49 1019.38 1020.36 1021.39 1022.44 1023.48 1024.49 1025.45 1026.35 1027.17 1027.90 1028.52 1029.03 1029.41 1029.67 1029.78 1029.77 1029.64 1029.41 1029.09 1028.72 1028.30 1027.86 1027.41 1026.95 1026.48 1025.99 1025.47
1022.01 1021.70 1021.25 1020.66 1019.95 1019.16 1018.33 1017.53 1016.82 1016.26 1015.89 1015.74 1015.83 1016.15 1016.69 1017.42 1018.29 1019.25 1020.28 1021.32 1022.36 1023.36 1024.32 1025.21 1026.04 1026.79 1027.46 1028.03 1028.49 1028.85 1029.08 1029.18 1029.16 1029.04 1028.82 1028.53 1028.18 1027.81 1027.41 1027.01 1026.61 1026.18 1025.73 1025.24
1020.35 1020.02 1019.59 1019.05 1018.42 1017.72 1017.00 1016.31 1015.72 1015.28 1015.03 1015.00 1015.21 1015.64 1016.28 1017.08 1018.01 1019.02 1020.06 1021.09 1022.10 1023.05 1023.95 1024.78 1025.55 1026.24 1026.86 1027.40 1027.84 1028.18 1028.41 1028.53 1028.53 1028.43 1028.24 1027.98 1027.68 1027.34 1027.00 1026.64 1026.28 1025.90 1025.49 1025.03
1018.64 1018.29 1017.88 1017.40 1016.86 1016.28 1015.70 1015.15 1014.70 1014.39 1014.26 1014.34 1014.64 1015.15 1015.84 1016.69 1017.64 1018.65 1019.67 1020.67 1021.63 1022.53 1023.37 1024.14 1024.85 1025.51 1026.10 1026.63 1027.08 1027.44 1027.71 1027.86 1027.91 1027.85 1027.71 1027.49 1027.23 1026.93 1026.62 1026.30 1025.97 1025.62 1025.24 1024.81
1016.94 1016.55 1016.16 1015.75 1015.31 1014.86 1014.42 1014.03 1013.72 1013.54 1013.53 1013.70 1014.07 1014.63 1015.35 1016.21 1017.15 1018.13 1019.11 1020.06 1020.97 1021.81 1022.60 1023.32 1024.00 1024.63 1025.22 1025.77 1026.25 1026.66 1026.99 1027.21 1027.32 1027.33 1027.24 1027.08 1026.85 1026.58 1026.28 1025.98 1025.66 1025.33 1024.97 1024.57
Thickness
5708 5707 5694 5685 5681 5679 5676 5673 5670 5664 5648 5641 5644 5644 5638 5618 5608 5604 5597 5587 5575 5563 5548 5530 5515 5502 5489 5476 5463 5450 5437 5424 5410 5397 5382 5368 5353 5338 5324 5310 5299 5289 5280 5272
5706 5692 5682 5677 5673 5671 5671 5669 5670 5658 5640 5640 5646 5645 5643 5627 5614 5608 5600 5589 5578 5563 5545 5526 5511 5497 5483 5469 5455 5441 5427 5413 5398 5383 5368 5353 5339 5326 5313 5300 5288 5278 5268 5260
5697 5684 5677 5675 5673 5671 5668 5668 5666 5657 5645 5635 5635 5657 5637 5623 5612 5605 5597 5589 5579 5563 5545 5525 5508 5493 5477 5462 5446 5431 5417 5402 5387 5372 5357 5342 5329 5316 5304 5292 5280 5269 5259 5250
5687 5679 5675 5673 5670 5668 5669 5661 5654 5648 5647 5656 5638 5656 5654 5630 5614 5605 5597 5588 5577 5562 5544 5524 5506 5489 5472 5454 5438 5423 5408 5393 5378 5362 5347 5333 5319 5308 5295 5282 5271 5261 5250 5241
5682 5675 5674 5671 5667 5662 5662 5652 5649 5645 5644 5646 5639 5644 5663 5625 5624 5617 5604 5591 5577 5559 5540 5520 5501 5483 5465 5447 5431 5415 5400 5385 5368 5352 5337 5323 5309 5297 5285 5274 5264 5254 5244 5233
5676 5673 5671 5667 5662 5658 5655 5652 5647 5643 5646 5650 5644 5641 5656 5642 5634 5623 5608 5592 5573 5554 5534 5515 5495 5476 5458 5441 5424 5408 5392 5377 5360 5344 5329 5314 5301 5289 5278 5268 5258 5248 5237 5226
5675 5671 5667 5664 5663 5660 5658 5661 5664 5663 5660 5660 5632 5631 5649 5640 5625 5613 5601 5587 5569 5548 5528 5510 5491 5472 5454 5436 5419 5402 5386 5371 5354 5337 5322 5307 5294 5282 5271 5261 5251 5241 5231 5220
5677 5675 5666 5663 5661 5659 5655 5655 5652 5645 5652 5656 5636 5636 5655 5630 5611 5598 5588 5577 5560 5541 5524 5506 5487 5468 5450 5431 5413 5396 5381 5365 5348 5332 5316 5302 5288 5276 5265 5254 5243 5233 5223 5213
5676 5672 5661 5657 5655 5655 5655 5650 5642 5643 5638 5633 5650 5649 5650 5616 5609 5597 5585 5569 5554 5537 5519 5501 5482 5463 5444 5426 5408 5391 5375 5359 5342 5326 5311 5297 5284 5272 5260 5249 5238 5228 5217 5207
5668 5667 5662 5655 5652 5645 5648 5646 5640 5637 5634 5635 5649 5646 5646 5639 5628 5608 5589 5572 5554 5533 5515 5496 5477 5458 5439 5420 5403 5386 5370 5354 5338 5322 5307 5292 5280 5267 5256 5245 5235 5225 5214 5203
5661 5665 5663 5657 5654 5656 5643 5638 5636 5634 5629 5627 5630 5649 5651 5641 5627 5613 5597 5576 5555 5532 5513 5493 5473 5454 5434 5416 5399 5383 5366 5350 5334 5318 5303 5290 5278 5265 5254 5243 5233 5222 5212 5202
5655 5661 5667 5662 5650 5644 5646 5645 5639 5637 5633 5621 5621 5642 5647 5632 5618 5605 5595 5575 5553 5531 5510 5490 5470 5449 5431 5414 5397 5380 5363 5347 5331 5315 5301 5288 5276 5264 5253 5243 5232 5221 5211 5201
5651 5657 5667 5665 5652 5641 5639 5636 5632 5630 5626 5622 5618 5646 5638 5622 5611 5599 5587 5572 5549 5527 5505 5485 5466 5447 5430 5412 5395 5378 5361 5345 5328 5313 5299 5287 5275 5264 5253 5243 5232 5221 5212 5202
5649 5655 5662 5667 5664 5657 5645 5634 5626 5626 5627 5630 5628 5647 5652 5637 5621 5606 5587 5568 5547 5524 5503 5484 5466 5447 5429 5411 5393 5376 5359 5342 5326 5311 5298 5286 5275 5264 5253 5242 5232 5222 5213 5204
5645 5653 5654 5655 5648 5638 5640 5638 5628 5626 5634 5633 5645 5643 5647 5643 5628 5611 5590 5566 5542 5522 5502 5484 5466 5448 5429 5410 5392 5374 5358 5341 5325 5311 5298 5286 5274 5264 5253 5244 5234 5224 5214 5205
5641 5647 5644 5649 5640 5634 5634 5639 5632 5627 5626 5629 5631 5634 5648 5636 5614 5602 5585 5562 5541 5524 5505 5485 5466 5447 5429 5411 5392 5374 5357 5340 5324 5310 5297 5285 5274 5264 5254 5245 5235 5226 5217 5208
5640 5643 5648 5657 5645 5639 5654 5662 5641 5634 5634 5634 5635 5648 5646 5626 5613 5603 5586 5564 5547 5530 5509 5487 5467 5448 5430 5410 5391 5373 5355 5338 5323 5310 5297 5286 5275 5265 5256 5247 5238 5229 5221 5212
5638 5639 5640 5643 5649 5644 5681 5660 5653 5647 5646 5639 5641 5646 5640 5627 5614 5599 5585 5569 5552 5532 5510 5489 5469 5448 5429 5408 5389 5370 5353 5337 5323 5311 5299 5288 5277 5267 5258 5249 5241 5233 5224 5216
5628 5633 5632 5631 5644 5657 5671 5653 5644 5642 5653 5656 5644 5644 5637 5608 5597 5602 5585 5568 5554 5534 5513 5492 5470 5449 5427 5406 5387 5369 5353 5339 5326 5314 5303 5291 5280 5270 5261 5253 5245 5236 5228 5220
5613 5619 5625 5619 5629 5643 5677 5653 5642 5639 5649 5663 5647 5642 5628 5600 5613 5618 5586 5564 5548 5529 5508 5488 5467 5446 5426 5406 5387 5370 5356 5343 5330 5318 5305 5293 5282 5273 5264 5256 5248 5239 5231 5223
5613 5613 5615 5619 5623 5653 5666 5640 5633 5642 5665 5664 5649 5641 5621 5610 5615 5600 5576 5559 5542 5523 5503 5484 5464 5445 5426 5406 5387 5372 5359 5346 5333 5319 5306 5295 5286 5276 5267 5259 5251 5243 5234 5227
5632 5623 5619 5620 5619 5645 5650 5634 5643 5667 5668 5657 5648 5639 5625 5617 5601 5582 5568 5553 5535 5517 5499 5481 5464 5445 5425 5405 5388 5375 5363 5349 5334 5320 5309 5299 5289 5279 5269 5262 5254 5246 5238 5231
5636 5643 5642 5640 5660 5670 5653 5659 5663 5660 5657 5652 5644 5636 5624 5611 5596 5580 5564 5549 5533 5516 5498 5480 5464 5445 5425 5407 5391 5379 5366 5349 5335 5323 5312 5302 5291 5282 5274 5265 5257 5250 5242 5234
5636 5630 5633 5634 5657 5663 5655 5655 5657 5653 5651 5651 5641 5632 5619 5608 5597 5580 5564 5548 5532 5515 5498 5480 5463 5446 5428 5411 5394 5380 5366 5350 5336 5325 5315 5304 5294 5285 5277 5268 5260 5252 5245 5238
5645 5625 5628 5637 5656 5655 5662 5659 5660 5657 5651 5643 5636 5626 5616 5607 5596 5581 5566 5549 5533 5515 5498 5480 5465 5450 5434 5416 5398 5382 5367 5352 5339 5328 5317 5306 5295 5286 5278 5270 5262 5254 5247 5238
5636 5634 5635 5657 5669 5658 5670 5670 5660 5653 5649 5643 5633 5622 5612 5604 5595 5581 5567 5551 5533 5516 5498 5481 5466 5452 5437 5420 5403 5386 5369 5355 5342 5330 5320 5309 5298 5288 5278 5270 5264 5256 5247 5240